Time,TemperatureF,DewpointF,PressureIn,WindDirection,WindDirectionDegrees,WindSpeedMPH,WindSpeedGustMPH,Humidity,HourlyPrecipIn,Conditions,Clouds,dailyrainin,SolarRadiationWatts/m^2,SoftwareType,DateUTC
2013-09-29 00:01:00,49.2,47.5,30.17,North,-999,0.0,0.0,94,0.00,,,-99.99,0,WeatherLink 6.0.3,2013-09-29 04:01:00,
2013-09-29 00:02:00,49.1,47.4,30.17,ESE,119,0.0,0.0,94,0.00,,,0.00,0,Wunderground v.1.15,2013-09-29 04:02:00,
2013-09-29 00:04:00,49.1,47.4,30.17,ESE,119,0.0,0.0,94,0.00,,,0.00,0,Wunderground v.1.15,2013-09-29 04:04:00,
2013-09-29 00:10:00,48.8,47.2,30.17,ESE,119,0.0,0.0,94,0.00,,,0.00,0,Wunderground v.1.15,2013-09-29 04:10:00,
2013-09-29 00:16:00,48.7,47.1,30.17,ESE,119,0.0,0.0,94,0.00,,,0.00,0,Wunderground v.1.15,2013-09-29 04:16:00,
2013-09-29 00:21:00,48.5,46.9,30.17,ESE,119,0.0,0.0,94,0.00,,,0.00,0,Wunderground v.1.15,2013-09-29 04:21:00,
2013-09-29 00:23:00,48.4,46.8,30.17,ESE,119,0.0,0.0,94,0.00,,,0.00,0,Wunderground v.1.15,2013-09-29 04:23:00,
2013-09-29 00:29:00,48.2,46.6,30.17,ESE,119,0.0,0.0,94,0.00,,,0.00,0,Wunderground v.1.15,2013-09-29 04:29:00,
2013-09-29 00:34:00,48.1,46.5,30.17,ESE,119,0.0,0.0,94,0.00,,,0.00,0,Wunderground v.1.15,2013-09-29 04:34:00,
2013-09-29 00:40:00,48.1,46.5,30.17,ESE,119,0.0,0.0,94,0.00,,,0.00,0,Wunderground v.1.15,2013-09-29 04:40:00,
2013-09-29 00:45:00,47.9,46.3,30.17,ESE,119,0.0,0.0,94,0.00,,,0.00,0,Wunderground v.1.15,2013-09-29 04:45:00,
2013-09-29 00:51:00,47.8,46.2,30.16,ESE,119,0.0,0.0,94,0.00,,,0.00,0,Wunderground v.1.15,2013-09-29 04:51:00,
2013-09-29 00:57:00,47.8,46.4,30.17,ESE,119,0.0,0.0,95,0.00,,,0.00,0,Wunderground v.1.15,2013-09-29 04:57:00,
2013-09-29 01:02:00,47.8,46.4,30.17,ESE,119,0.0,0.0,95,0.00,,,0.00,0,Wunderground v.1.15,2013-09-29 05:02:00,
2013-09-29 01:08:00,47.8,46.4,30.17,ESE,119,0.0,0.0,95,0.00,,,0.00,0,Wunderground v.1.15,2013-09-29 05:08:00,
2013-09-29 01:13:00,47.6,46.2,30.17,ESE,119,0.0,0.0,95,0.00,,,0.00,0,Wunderground v.1.15,2013-09-29 05:13:00,
2013-09-29 01:19:00,47.5,46.1,30.17,ESE,119,0.0,0.0,95,0.00,,,0.00,0,Wunderground v.1.15,2013-09-29 05:19:00,
2013-09-29 01:25:00,47.5,46.1,30.17,ESE,119,0.0,0.0,95,0.00,,,0.00,0,Wunderground v.1.15,2013-09-29 05:25:00,
2013-09-29 01:31:00,47.4,46.0,30.17,ESE,119,0.0,0.0,95,0.00,,,0.00,0,Wunderground v.1.15,2013-09-29 05:31:00,
2013-09-29 01:36:00,47.4,46.0,30.17,ESE,119,0.0,0.0,95,0.00,,,0.00,0,Wunderground v.1.15,2013-09-29 05:36:00,
2013-09-29 01:41:00,47.2,45.8,30.17,ESE,119,0.0,0.0,95,0.00,,,0.00,0,Wunderground v.1.15,2013-09-29 05:41:00,
2013-09-29 01:46:00,47.0,45.6,30.16,ESE,119,0.0,0.0,95,0.00,,,0.00,0,Wunderground v.1.15,2013-09-29 05:46:00,
2013-09-29 01:52:00,46.8,45.4,30.16,ESE,119,0.0,0.0,95,0.00,,,0.00,0,Wunderground v.1.15,2013-09-29 05:52:00,
2013-09-29 01:58:00,46.7,45.3,30.16,ESE,119,0.0,0.0,95,0.00,,,0.00,0,Wunderground v.1.15,2013-09-29 05:58:00,
2013-09-29 02:04:00,46.7,45.3,30.16,ESE,119,0.0,0.0,95,0.00,,,0.00,0,Wunderground v.1.15,2013-09-29 06:04:00,
2013-09-29 02:09:00,46.7,45.3,30.16,ESE,119,0.0,0.0,95,0.00,,,0.00,0,Wunderground v.1.15,2013-09-29 06:09:00,
2013-09-29 02:14:00,46.6,45.2,30.16,ESE,119,0.0,0.0,95,0.00,,,0.00,0,Wunderground v.1.15,2013-09-29 06:14:00,
2013-09-29 02:20:00,46.5,45.1,30.16,ESE,119,0.0,0.0,95,0.00,,,0.00,0,Wunderground v.1.15,2013-09-29 06:20:00,
2013-09-29 02:26:00,46.3,44.9,30.16,ESE,119,0.0,0.0,95,0.00,,,0.00,0,Wunderground v.1.15,2013-09-29 06:26:00,
2013-09-29 02:31:00,46.1,44.7,30.15,North,-999,0.0,0.0,95,0.00,,,-99.99,0,WeatherLink 6.0.3,2013-09-29 06:31:00,
2013-09-29 02:36:00,46.1,44.7,30.15,ESE,119,0.0,0.0,95,0.00,,,0.00,0,Wunderground v.1.15,2013-09-29 06:36:00,
2013-09-29 02:42:00,46.0,44.6,30.15,ESE,119,0.0,0.0,95,0.00,,,0.00,0,Wunderground v.1.15,2013-09-29 06:42:00,
2013-09-29 02:47:00,46.0,44.6,30.15,ESE,119,0.0,0.0,95,0.00,,,0.00,0,Wunderground v.1.15,2013-09-29 06:47:00,
2013-09-29 02:53:00,45.8,44.4,30.15,ESE,119,0.0,0.0,95,0.00,,,0.00,0,Wunderground v.1.15,2013-09-29 06:53:00,
2013-09-29 02:59:00,45.8,44.7,30.15,ESE,119,0.0,0.0,96,0.00,,,0.00,0,Wunderground v.1.15,2013-09-29 06:59:00,
2013-09-29 03:05:00,45.8,44.7,30.15,ESE,119,0.0,0.0,96,0.00,,,0.00,0,Wunderground v.1.15,2013-09-29 07:05:00,
2013-09-29 03:11:00,45.8,44.4,30.15,ESE,119,0.0,0.0,95,0.00,,,0.00,0,Wunderground v.1.15,2013-09-29 07:11:00,
2013-09-29 03:16:00,45.6,44.3,30.14,ESE,119,0.0,0.0,95,0.00,,,0.00,0,Wunderground v.1.15,2013-09-29 07:16:00,
2013-09-29 03:22:00,45.5,44.4,30.14,ESE,119,0.0,0.0,96,0.00,,,0.00,0,Wunderground v.1.15,2013-09-29 07:22:00,
2013-09-29 03:28:00,45.4,44.3,30.14,ESE,119,0.0,0.0,96,0.00,,,0.00,0,Wunderground v.1.15,2013-09-29 07:28:00,
2013-09-29 03:33:00,45.3,44.0,30.14,ESE,119,0.0,0.0,95,0.00,,,0.00,0,Wunderground v.1.15,2013-09-29 07:33:00,
2013-09-29 03:38:00,45.2,43.9,30.14,ESE,119,0.0,0.0,95,0.00,,,0.00,0,Wunderground v.1.15,2013-09-29 07:38:00,
2013-09-29 03:44:00,45.1,44.0,30.14,ESE,119,0.0,0.0,96,0.00,,,0.00,0,Wunderground v.1.15,2013-09-29 07:44:00,
2013-09-29 03:50:00,45.0,43.9,30.15,ESE,119,0.0,0.0,96,0.00,,,0.00,0,Wunderground v.1.15,2013-09-29 07:50:00,
2013-09-29 03:56:00,44.9,43.8,30.14,ESE,119,0.0,0.0,96,0.00,,,0.00,0,Wunderground v.1.15,2013-09-29 07:56:00,
2013-09-29 04:01:00,44.9,43.8,30.14,ESE,119,0.0,0.0,96,0.00,,,0.00,0,Wunderground v.1.15,2013-09-29 08:01:00,
2013-09-29 04:07:00,45.0,43.9,30.14,ESE,119,0.0,0.0,96,0.00,,,0.00,0,Wunderground v.1.15,2013-09-29 08:07:00,
2013-09-29 04:12:00,45.1,44.0,30.14,ESE,119,0.0,0.0,96,0.00,,,0.00,0,Wunderground v.1.15,2013-09-29 08:12:00,
2013-09-29 04:18:00,45.4,44.3,30.14,ESE,119,0.0,0.0,96,0.00,,,0.00,0,Wunderground v.1.15,2013-09-29 08:18:00,
2013-09-29 04:24:00,45.6,44.5,30.14,ESE,119,0.0,0.0,96,0.00,,,0.00,0,Wunderground v.1.15,2013-09-29 08:24:00,
2013-09-29 04:29:00,45.9,45.1,30.14,ESE,119,0.0,0.0,97,0.00,,,0.00,0,Wunderground v.1.15,2013-09-29 08:29:00,
2013-09-29 04:35:00,46.1,45.3,30.14,ESE,119,0.0,0.0,97,0.00,,,0.00,0,Wunderground v.1.15,2013-09-29 08:35:00,
2013-09-29 04:41:00,46.4,45.6,30.14,ESE,119,0.0,0.0,97,0.00,,,0.00,0,Wunderground v.1.15,2013-09-29 08:41:00,
2013-09-29 04:47:00,46.8,46.0,30.14,ESE,119,0.0,0.0,97,0.00,,,0.00,0,Wunderground v.1.15,2013-09-29 08:47:00,
2013-09-29 04:53:00,47.1,46.3,30.14,ESE,119,0.0,0.0,97,0.00,,,0.00,0,Wunderground v.1.15,2013-09-29 08:53:00,
2013-09-29 04:59:00,47.2,46.4,30.14,ESE,119,0.0,0.0,97,0.00,,,0.00,0,Wunderground v.1.15,2013-09-29 08:59:00,
2013-09-29 05:04:00,47.4,46.6,30.14,ESE,119,0.0,0.0,97,0.00,,,0.00,0,Wunderground v.1.15,2013-09-29 09:04:00,
2013-09-29 05:11:00,47.6,46.8,30.14,ESE,119,0.0,0.0,97,0.00,,,0.00,0,Wunderground v.1.15,2013-09-29 09:11:00,
2013-09-29 05:16:00,47.8,47.0,30.14,ESE,119,0.0,0.0,97,0.00,,,0.00,0,Wunderground v.1.15,2013-09-29 09:16:00,
2013-09-29 05:22:00,48.0,47.2,30.14,ESE,119,0.0,0.0,97,0.00,,,0.00,0,Wunderground v.1.15,2013-09-29 09:22:00,
2013-09-29 05:28:00,48.2,47.4,30.14,ESE,119,0.0,0.0,97,0.00,,,0.00,0,Wunderground v.1.15,2013-09-29 09:28:00,
2013-09-29 05:34:00,48.4,47.6,30.14,ESE,119,0.0,0.0,97,0.00,,,0.00,0,Wunderground v.1.15,2013-09-29 09:34:00,
2013-09-29 05:39:00,48.6,47.8,30.14,ESE,119,0.0,0.0,97,0.00,,,0.00,0,Wunderground v.1.15,2013-09-29 09:39:00,
2013-09-29 05:45:00,48.8,48.0,30.14,ESE,119,0.0,0.0,97,0.00,,,0.00,0,Wunderground v.1.15,2013-09-29 09:45:00,
2013-09-29 05:51:00,49.0,48.2,30.14,ESE,119,0.0,0.0,97,0.00,,,0.00,0,Wunderground v.1.15,2013-09-29 09:51:00,
2013-09-29 05:57:00,49.1,48.3,30.14,ESE,119,0.0,0.0,97,0.00,,,0.00,0,Wunderground v.1.15,2013-09-29 09:57:00,
2013-09-29 06:03:00,49.2,48.4,30.14,ESE,119,0.0,0.0,97,0.00,,,0.00,0,Wunderground v.1.15,2013-09-29 10:03:00,
2013-09-29 06:09:00,49.4,48.6,30.14,ESE,119,0.0,0.0,97,0.00,,,0.00,0,Wunderground v.1.15,2013-09-29 10:09:00,
2013-09-29 06:14:00,49.5,48.7,30.14,ESE,119,0.0,0.0,97,0.00,,,0.00,0,Wunderground v.1.15,2013-09-29 10:14:00,
2013-09-29 06:20:00,49.6,48.8,30.14,ESE,119,0.0,0.0,97,0.00,,,0.00,0,Wunderground v.1.15,2013-09-29 10:20:00,
2013-09-29 06:26:00,49.9,49.1,30.14,ESE,119,0.0,0.0,97,0.00,,,0.00,0,Wunderground v.1.15,2013-09-29 10:26:00,
2013-09-29 06:31:00,50.0,49.2,30.14,ESE,119,0.0,0.0,97,0.00,,,0.00,0,Wunderground v.1.15,2013-09-29 10:31:00,
2013-09-29 06:38:00,50.3,49.5,30.14,ESE,119,0.0,0.0,97,0.00,,,0.00,0,Wunderground v.1.15,2013-09-29 10:38:00,
2013-09-29 06:44:00,50.4,49.6,30.14,ESE,119,0.0,0.0,97,0.00,,,0.00,0,Wunderground v.1.15,2013-09-29 10:44:00,
2013-09-29 06:50:00,50.5,49.7,30.14,ESE,119,0.0,0.0,97,0.00,,,0.00,0,Wunderground v.1.15,2013-09-29 10:50:00,
2013-09-29 06:56:00,50.5,49.7,30.14,ESE,119,0.0,0.0,97,0.00,,,0.00,0,Wunderground v.1.15,2013-09-29 10:56:00,
2013-09-29 07:01:00,50.5,49.7,30.14,North,-999,0.0,0.0,97,0.00,,,-99.99,0,WeatherLink 6.0.3,2013-09-29 11:01:00,
2013-09-29 07:06:00,50.4,49.6,30.14,ESE,119,0.0,0.0,97,0.00,,,0.00,0,Wunderground v.1.15,2013-09-29 11:06:00,
2013-09-29 07:11:00,50.3,49.5,30.14,ESE,119,0.0,0.0,97,0.00,,,0.00,0,Wunderground v.1.15,2013-09-29 11:11:00,
2013-09-29 07:17:00,50.3,49.5,30.14,ESE,119,0.0,0.0,97,0.00,,,0.00,0,Wunderground v.1.15,2013-09-29 11:17:00,
2013-09-29 07:23:00,50.3,49.5,30.14,ESE,119,0.0,0.0,97,0.00,,,0.00,5,Wunderground v.1.15,2013-09-29 11:23:00,
2013-09-29 07:28:00,50.2,49.4,30.14,ESE,119,0.0,0.0,97,0.00,,,0.00,11,Wunderground v.1.15,2013-09-29 11:28:00,
2013-09-29 07:34:00,50.1,49.3,30.15,ESE,119,0.0,0.0,97,0.00,,,0.00,14,Wunderground v.1.15,2013-09-29 11:34:00,
2013-09-29 07:40:00,50.0,49.2,30.15,ESE,119,0.0,0.0,97,0.00,,,0.00,16,Wunderground v.1.15,2013-09-29 11:40:00,
2013-09-29 07:46:00,49.9,49.1,30.14,ESE,119,0.0,0.0,97,0.00,,,0.00,14,Wunderground v.1.15,2013-09-29 11:46:00,
2013-09-29 07:51:00,49.9,49.1,30.14,ESE,119,0.0,0.0,97,0.00,,,0.00,14,Wunderground v.1.15,2013-09-29 11:51:00,
2013-09-29 07:56:00,49.9,49.1,30.15,ESE,119,0.0,0.0,97,0.00,,,0.00,16,Wunderground v.1.15,2013-09-29 11:56:00,
2013-09-29 08:01:00,50.0,49.2,30.15,ESE,119,0.0,0.0,97,0.00,,,0.00,19,Wunderground v.1.15,2013-09-29 12:01:00,
2013-09-29 08:07:00,50.0,49.2,30.15,ESE,119,0.0,0.0,97,0.00,,,0.00,33,Wunderground v.1.15,2013-09-29 12:07:00,
2013-09-29 08:12:00,50.3,49.5,30.15,ESE,119,0.0,0.0,97,0.00,,,0.00,33,Wunderground v.1.15,2013-09-29 12:12:00,
2013-09-29 08:18:00,51.2,50.7,30.15,ESE,120,0.0,0.0,98,0.00,,,0.00,39,Wunderground v.1.15,2013-09-29 12:18:00,
2013-09-29 08:24:00,52.0,51.5,30.15,ESE,120,0.0,0.0,98,0.00,,,0.00,44,Wunderground v.1.15,2013-09-29 12:24:00,
2013-09-29 08:30:00,52.5,52.0,30.15,ESE,120,0.0,0.0,98,0.00,,,0.00,47,Wunderground v.1.15,2013-09-29 12:30:00,
2013-09-29 08:36:00,52.9,52.4,30.15,ESE,119,0.0,0.0,98,0.00,,,0.00,74,Wunderground v.1.15,2013-09-29 12:36:00,
2013-09-29 08:41:00,53.6,53.0,30.15,ESE,119,0.0,0.0,98,0.00,,,0.00,104,Wunderground v.1.15,2013-09-29 12:41:00,
2013-09-29 08:47:00,54.6,54.0,30.15,ESE,119,0.0,0.0,98,0.00,,,0.00,105,Wunderground v.1.15,2013-09-29 12:47:00,
2013-09-29 08:53:00,55.5,54.9,30.15,ESE,119,0.0,0.0,98,0.00,,,0.00,86,Wunderground v.1.15,2013-09-29 12:53:00,
2013-09-29 08:59:00,56.2,55.4,30.15,ESE,119,0.0,0.0,97,0.00,,,0.00,90,Wunderground v.1.15,2013-09-29 12:59:00,
2013-09-29 09:05:00,56.4,55.0,30.15,ESE,119,0.0,0.0,95,0.00,,,0.00,90,Wunderground v.1.15,2013-09-29 13:05:00,
2013-09-29 09:11:00,56.9,54.9,30.15,ESE,120,0.0,0.0,93,0.00,,,0.00,79,Wunderground v.1.15,2013-09-29 13:11:00,
2013-09-29 09:16:00,57.3,54.7,30.15,ESE,120,0.0,0.0,91,0.00,,,0.00,67,Wunderground v.1.15,2013-09-29 13:16:00,
2013-09-29 09:22:00,57.8,54.6,30.15,ESE,120,0.0,0.0,89,0.00,,,0.00,70,Wunderground v.1.15,2013-09-29 13:22:00,
2013-09-29 09:29:00,58.4,54.5,30.14,ESE,120,0.0,0.0,87,0.00,,,0.00,86,Wunderground v.1.15,2013-09-29 13:29:00,
2013-09-29 09:33:00,59.1,55.2,30.14,ESE,120,0.0,0.0,87,0.00,,,0.00,98,Wunderground v.1.15,2013-09-29 13:33:00,
2013-09-29 09:39:00,59.8,55.6,30.14,ESE,120,0.0,0.0,86,0.00,,,0.00,105,Wunderground v.1.15,2013-09-29 13:39:00,
2013-09-29 09:45:00,60.7,55.2,30.14,ESE,120,0.0,1.0,82,0.00,,,0.00,116,Wunderground v.1.15,2013-09-29 13:45:00,
2013-09-29 09:50:00,61.5,54.9,30.14,ESE,120,0.0,0.0,79,0.00,,,0.00,95,Wunderground v.1.15,2013-09-29 13:50:00,
2013-09-29 09:56:00,62.0,55.1,30.13,SE,144,1.0,2.0,78,0.00,,,0.00,67,Wunderground v.1.15,2013-09-29 13:56:00,
2013-09-29 10:01:00,62.2,55.3,30.13,SSE,148,1.0,1.0,78,0.00,,,0.00,190,Wunderground v.1.15,2013-09-29 14:01:00,
2013-09-29 10:07:00,62.7,55.0,30.13,SE,129,0.0,1.0,76,0.00,,,0.00,213,Wunderground v.1.15,2013-09-29 14:07:00,
2013-09-29 10:12:00,63.3,55.2,30.13,ESE,115,1.0,1.0,75,0.00,,,0.00,246,Wunderground v.1.15,2013-09-29 14:12:00,
2013-09-29 10:18:00,63.9,55.8,30.13,SSE,161,1.0,2.0,75,0.00,,,0.00,257,Wunderground v.1.15,2013-09-29 14:18:00,
2013-09-29 10:24:00,64.4,55.6,30.13,SE,134,1.0,3.0,73,0.00,,,0.00,279,Wunderground v.1.15,2013-09-29 14:24:00,
2013-09-29 10:30:00,64.9,56.4,30.13,SSE,159,1.0,1.0,74,0.00,,,0.00,292,Wunderground v.1.15,2013-09-29 14:30:00,
2013-09-29 10:35:00,65.3,57.2,30.13,SE,128,1.0,2.0,75,0.00,,,0.00,295,Wunderground v.1.15,2013-09-29 14:35:00,
2013-09-29 10:40:00,65.7,56.8,30.13,SE,138,1.0,1.0,73,0.00,,,0.00,297,Wunderground v.1.15,2013-09-29 14:40:00,
2013-09-29 10:45:00,66.1,56.8,30.13,SSE,160,1.0,2.0,72,0.00,,,0.00,292,Wunderground v.1.15,2013-09-29 14:45:00,
2013-09-29 10:51:00,66.5,57.6,30.13,SE,130,1.0,4.0,73,0.00,,,0.00,309,Wunderground v.1.15,2013-09-29 14:51:00,
2013-09-29 10:57:00,67.2,58.2,30.12,SSE,150,1.0,4.0,73,0.00,,,0.00,325,Wunderground v.1.15,2013-09-29 14:57:00,
2013-09-29 11:03:00,67.7,58.3,30.12,SSE,165,1.0,1.0,72,0.00,,,0.00,388,Wunderground v.1.15,2013-09-29 15:03:00,
2013-09-29 11:09:00,68.0,57.0,30.12,South,169,0.0,1.0,68,0.00,,,0.00,403,Wunderground v.1.15,2013-09-29 15:09:00,
2013-09-29 11:14:00,68.2,58.8,30.12,West,261,0.0,1.0,72,0.00,,,0.00,457,Wunderground v.1.15,2013-09-29 15:14:00,
2013-09-29 11:20:00,68.3,56.5,30.12,SE,142,1.0,1.0,66,0.00,,,0.00,480,Wunderground v.1.15,2013-09-29 15:20:00,
2013-09-29 11:26:00,68.3,57.7,30.11,SE,132,1.0,3.0,69,0.00,,,0.00,441,Wunderground v.1.15,2013-09-29 15:26:00,
2013-09-29 11:31:00,68.5,58.3,30.11,SSE,157,0.0,7.0,70,0.00,,,-99.99,429,WeatherLink 6.0.3,2013-09-29 15:31:00,
2013-09-29 11:37:00,68.6,58.0,30.11,SW,227,0.0,2.0,69,0.00,,,0.00,534,Wunderground v.1.15,2013-09-29 15:37:00,
2013-09-29 11:42:00,69.0,58.4,30.11,ESE,103,0.0,0.0,69,0.00,,,0.00,548,Wunderground v.1.15,2013-09-29 15:42:00,
2013-09-29 11:48:00,69.6,57.7,30.11,NE,44,0.0,0.0,66,0.00,,,0.00,334,Wunderground v.1.15,2013-09-29 15:48:00,
2013-09-29 11:53:00,69.7,58.3,30.11,East,98,0.0,1.0,67,0.00,,,0.00,476,Wunderground v.1.15,2013-09-29 15:53:00,
2013-09-29 11:59:00,69.8,58.8,30.10,ESE,117,0.0,1.0,68,0.00,,,0.00,364,Wunderground v.1.15,2013-09-29 15:59:00,
2013-09-29 12:05:00,69.9,58.9,30.10,SSE,150,0.0,1.0,68,0.00,,,0.00,144,Wunderground v.1.15,2013-09-29 16:05:00,
2013-09-29 12:11:00,69.4,58.8,30.10,SE,146,0.0,0.0,69,0.00,,,0.00,629,Wunderground v.1.15,2013-09-29 16:11:00,
2013-09-29 12:16:00,69.4,58.0,30.10,SSE,154,0.0,0.0,67,0.00,,,0.00,647,Wunderground v.1.15,2013-09-29 16:16:00,
2013-09-29 12:22:00,69.7,59.5,30.10,NW,320,1.0,1.0,70,0.00,,,0.00,610,Wunderground v.1.15,2013-09-29 16:22:00,
2013-09-29 12:27:00,70.1,60.3,30.10,SW,236,0.0,1.0,71,0.00,,,0.00,652,Wunderground v.1.15,2013-09-29 16:27:00,
2013-09-29 12:33:00,70.5,59.0,30.10,SE,126,1.0,4.0,67,0.00,,,0.00,640,Wunderground v.1.15,2013-09-29 16:33:00,
2013-09-29 12:38:00,70.4,58.9,30.10,SE,136,3.0,6.0,67,0.00,,,0.00,656,Wunderground v.1.15,2013-09-29 16:38:00,
2013-09-29 12:44:00,70.3,58.8,30.09,SE,144,3.0,4.0,67,0.00,,,0.00,629,Wunderground v.1.15,2013-09-29 16:44:00,
2013-09-29 12:50:00,70.4,58.9,30.09,SE,126,2.0,4.0,67,0.00,,,0.00,652,Wunderground v.1.15,2013-09-29 16:50:00,
2013-09-29 12:56:00,70.7,59.2,30.09,SSE,165,1.0,4.0,67,0.00,,,0.00,642,Wunderground v.1.15,2013-09-29 16:56:00,
2013-09-29 13:01:00,70.9,59.8,30.09,SE,135,2.0,12.0,68,0.00,,,-99.99,636,WeatherLink 6.0.3,2013-09-29 17:01:00,
2013-09-29 13:07:00,71.2,59.3,30.09,SE,143,1.0,3.0,66,0.00,,,0.00,605,Wunderground v.1.15,2013-09-29 17:07:00,
2013-09-29 13:13:00,71.5,60.4,30.08,SE,137,1.0,1.0,68,0.00,,,0.00,584,Wunderground v.1.15,2013-09-29 17:13:00,
2013-09-29 13:18:00,71.7,59.3,30.08,SE,140,0.0,1.0,65,0.00,,,0.00,613,Wunderground v.1.15,2013-09-29 17:18:00,
2013-09-29 13:24:00,71.9,59.9,30.08,SSE,156,1.0,5.0,66,0.00,,,0.00,708,Wunderground v.1.15,2013-09-29 17:24:00,
2013-09-29 13:29:00,72.2,60.6,30.08,SSE,153,1.0,5.0,67,0.00,,,0.00,645,Wunderground v.1.15,2013-09-29 17:29:00,
2013-09-29 13:35:00,72.5,59.2,30.07,ESE,122,0.0,1.0,63,0.00,,,0.00,729,Wunderground v.1.15,2013-09-29 17:35:00,
2013-09-29 13:41:00,72.9,60.4,30.07,SE,138,0.0,0.0,65,0.00,,,0.00,733,Wunderground v.1.15,2013-09-29 17:41:00,
2013-09-29 13:46:00,73.1,61.1,30.07,SE,134,0.0,1.0,66,0.00,,,0.00,673,Wunderground v.1.15,2013-09-29 17:46:00,
2013-09-29 13:53:00,73.3,61.3,30.07,SE,136,0.0,2.0,66,0.00,,,0.00,605,Wunderground v.1.15,2013-09-29 17:53:00,
2013-09-29 13:58:00,73.4,59.6,30.07,SSE,166,1.0,2.0,62,0.00,,,0.00,766,Wunderground v.1.15,2013-09-29 17:58:00,
2013-09-29 14:05:00,73.6,59.8,30.06,ESE,102,0.0,0.0,62,0.00,,,0.00,589,Wunderground v.1.15,2013-09-29 18:05:00,
2013-09-29 14:11:00,73.9,61.0,30.06,ESE,122,0.0,1.0,64,0.00,,,0.00,661,Wunderground v.1.15,2013-09-29 18:11:00,
2013-09-29 14:16:00,73.9,60.5,30.06,SE,140,1.0,1.0,63,0.00,,,0.00,610,Wunderground v.1.15,2013-09-29 18:16:00,
2013-09-29 14:21:00,73.8,61.3,30.05,SSE,167,1.0,1.0,65,0.00,,,0.00,373,Wunderground v.1.15,2013-09-29 18:21:00,
2013-09-29 14:27:00,73.9,61.0,30.05,NW,307,1.0,2.0,64,0.00,,,0.00,422,Wunderground v.1.15,2013-09-29 18:27:00,
2013-09-29 14:33:00,73.9,60.1,30.05,SSE,147,0.0,1.0,62,0.00,,,0.00,450,Wunderground v.1.15,2013-09-29 18:33:00,
2013-09-29 14:38:00,73.9,60.1,30.05,SE,136,0.0,1.0,62,0.00,,,0.00,381,Wunderground v.1.15,2013-09-29 18:38:00,
2013-09-29 14:43:00,74.0,61.5,30.05,West,281,0.0,0.0,65,0.00,,,0.00,281,Wunderground v.1.15,2013-09-29 18:43:00,
2013-09-29 14:48:00,73.9,59.6,30.05,South,185,0.0,1.0,61,0.00,,,0.00,302,Wunderground v.1.15,2013-09-29 18:48:00,
2013-09-29 14:54:00,73.8,59.5,30.05,SE,138,0.0,0.0,61,0.00,,,0.00,432,Wunderground v.1.15,2013-09-29 18:54:00,
2013-09-29 14:59:00,73.7,61.2,30.05,SE,138,0.0,0.0,65,0.00,,,0.00,267,Wunderground v.1.15,2013-09-29 18:59:00,
2013-09-29 15:05:00,73.8,60.9,30.05,ESE,122,0.0,0.0,64,0.00,,,0.00,288,Wunderground v.1.15,2013-09-29 19:05:00,
2013-09-29 15:11:00,74.1,60.7,30.04,NW,323,0.0,0.0,63,0.00,,,0.00,269,Wunderground v.1.15,2013-09-29 19:11:00,
2013-09-29 15:16:00,74.2,59.9,30.04,West,267,0.0,1.0,61,0.00,,,0.00,265,Wunderground v.1.15,2013-09-29 19:16:00,
2013-09-29 15:22:00,74.2,59.9,30.04,West,266,0.0,0.0,61,0.00,,,0.00,211,Wunderground v.1.15,2013-09-29 19:22:00,
2013-09-29 15:27:00,74.0,59.7,30.04,West,266,0.0,0.0,61,0.00,,,0.00,200,Wunderground v.1.15,2013-09-29 19:27:00,
2013-09-29 15:33:00,73.6,61.1,30.04,West,264,0.0,0.0,65,0.00,,,0.00,237,Wunderground v.1.15,2013-09-29 19:33:00,
2013-09-29 15:39:00,73.3,61.7,30.04,West,264,0.0,0.0,67,0.00,,,0.00,243,Wunderground v.1.15,2013-09-29 19:39:00,
2013-09-29 15:44:00,73.1,61.1,30.03,West,264,0.0,0.0,66,0.00,,,0.00,264,Wunderground v.1.15,2013-09-29 19:44:00,
2013-09-29 15:51:00,73.2,61.2,30.03,West,264,0.0,0.0,66,0.00,,,0.00,250,Wunderground v.1.15,2013-09-29 19:51:00,
2013-09-29 15:56:00,73.4,60.5,30.03,WSW,253,0.0,0.0,64,0.00,,,0.00,181,Wunderground v.1.15,2013-09-29 19:56:00,
2013-09-29 16:03:00,73.5,60.6,30.03,WSW,253,0.0,1.0,64,0.00,,,0.00,236,Wunderground v.1.15,2013-09-29 20:03:00,
2013-09-29 16:08:00,73.4,61.3,30.03,ESE,123,0.0,1.0,66,0.00,,,0.00,132,Wunderground v.1.15,2013-09-29 20:08:00,
2013-09-29 16:14:00,73.3,61.3,30.03,ESE,121,0.0,0.0,66,0.00,,,0.00,149,Wunderground v.1.15,2013-09-29 20:14:00,
2013-09-29 16:20:00,73.2,61.2,30.03,ESE,121,0.0,0.0,66,0.00,,,0.00,167,Wunderground v.1.15,2013-09-29 20:20:00,
2013-09-29 16:25:00,73.2,61.6,30.03,WNW,288,0.0,2.0,67,0.00,,,0.00,206,Wunderground v.1.15,2013-09-29 20:25:00,
2013-09-29 16:31:00,73.2,62.4,30.03,ESE,112,0.0,3.0,69,0.00,,,-99.99,174,WeatherLink 6.0.3,2013-09-29 20:31:00,
2013-09-29 16:36:00,73.2,61.2,30.03,WNW,288,0.0,0.0,66,0.00,,,0.00,151,Wunderground v.1.15,2013-09-29 20:36:00,
2013-09-29 16:41:00,73.1,62.3,30.03,WNW,288,0.0,0.0,69,0.00,,,0.00,146,Wunderground v.1.15,2013-09-29 20:41:00,
2013-09-29 16:47:00,73.1,63.5,30.03,WNW,288,0.0,0.0,72,0.00,,,0.00,146,Wunderground v.1.15,2013-09-29 20:47:00,
2013-09-29 16:53:00,72.9,62.9,30.02,WNW,288,0.0,0.0,71,0.00,,,0.00,167,Wunderground v.1.15,2013-09-29 20:53:00,
2013-09-29 16:58:00,72.8,59.5,30.02,WNW,286,0.0,1.0,63,0.00,,,0.00,172,Wunderground v.1.15,2013-09-29 20:58:00,
2013-09-29 17:04:00,72.8,60.3,30.02,WNW,286,0.0,0.0,65,0.00,,,0.00,158,Wunderground v.1.15,2013-09-29 21:04:00,
2013-09-29 17:10:00,73.1,58.8,30.02,WNW,286,0.0,0.0,61,0.00,,,0.00,141,Wunderground v.1.15,2013-09-29 21:10:00,
2013-09-29 17:16:00,73.2,59.8,30.02,WNW,286,0.0,0.0,63,0.00,,,0.00,91,Wunderground v.1.15,2013-09-29 21:16:00,
2013-09-29 17:22:00,73.1,62.7,30.02,WNW,286,0.0,0.0,70,0.00,,,0.00,69,Wunderground v.1.15,2013-09-29 21:22:00,
2013-09-29 17:28:00,72.6,63.4,30.02,WNW,283,0.0,0.0,73,0.00,,,0.00,65,Wunderground v.1.15,2013-09-29 21:28:00,
2013-09-29 17:33:00,72.0,62.5,30.02,WNW,283,0.0,0.0,72,0.00,,,0.00,70,Wunderground v.1.15,2013-09-29 21:33:00,
2013-09-29 17:39:00,71.2,62.1,30.01,WNW,283,0.0,0.0,73,0.00,,,0.00,81,Wunderground v.1.15,2013-09-29 21:39:00,
2013-09-29 17:45:00,70.6,63.4,30.01,WNW,283,0.0,0.0,78,0.00,,,0.00,88,Wunderground v.1.15,2013-09-29 21:45:00,
2013-09-29 17:50:00,70.0,63.5,30.01,WNW,283,0.0,0.0,80,0.00,,,0.00,79,Wunderground v.1.15,2013-09-29 21:50:00,
2013-09-29 17:56:00,69.4,63.7,30.02,WNW,283,0.0,0.0,82,0.00,,,0.00,62,Wunderground v.1.15,2013-09-29 21:56:00,
2013-09-29 18:01:00,69.0,63.3,30.02,WNW,283,0.0,0.0,82,0.00,,,0.00,46,Wunderground v.1.15,2013-09-29 22:01:00,
2013-09-29 18:07:00,68.4,63.0,30.02,WNW,283,0.0,0.0,83,0.00,,,0.00,33,Wunderground v.1.15,2013-09-29 22:07:00,
2013-09-29 18:13:00,67.9,62.9,30.02,WNW,283,0.0,0.0,84,0.00,,,0.00,32,Wunderground v.1.15,2013-09-29 22:13:00,
2013-09-29 18:18:00,67.4,62.7,30.02,WNW,283,0.0,0.0,85,0.00,,,0.00,33,Wunderground v.1.15,2013-09-29 22:18:00,
2013-09-29 18:24:00,67.0,62.7,30.02,WNW,283,0.0,0.0,86,0.00,,,0.00,33,Wunderground v.1.15,2013-09-29 22:24:00,
2013-09-29 18:30:00,66.5,62.2,30.02,WNW,283,0.0,0.0,86,0.00,,,0.00,30,Wunderground v.1.15,2013-09-29 22:30:00,
2013-09-29 18:35:00,66.0,62.0,30.02,WNW,283,0.0,0.0,87,0.00,,,0.00,21,Wunderground v.1.15,2013-09-29 22:35:00,
2013-09-29 18:41:00,65.6,61.6,30.02,WNW,283,0.0,0.0,87,0.00,,,0.00,14,Wunderground v.1.15,2013-09-29 22:41:00,
2013-09-29 18:47:00,65.1,61.5,30.01,WNW,283,0.0,0.0,88,0.00,,,0.00,7,Wunderground v.1.15,2013-09-29 22:47:00,
2013-09-29 18:53:00,64.6,61.0,30.02,WNW,283,0.0,0.0,88,0.00,,,0.00,5,Wunderground v.1.15,2013-09-29 22:53:00,
2013-09-29 18:59:00,64.1,60.5,30.02,WNW,283,0.0,0.0,88,0.00,,,0.00,0,Wunderground v.1.15,2013-09-29 22:59:00,
2013-09-29 19:05:00,63.6,60.3,30.02,WNW,283,0.0,0.0,89,0.00,,,0.00,0,Wunderground v.1.15,2013-09-29 23:05:00,
2013-09-29 19:11:00,63.2,59.9,30.02,WNW,283,0.0,0.0,89,0.00,,,0.00,0,Wunderground v.1.15,2013-09-29 23:11:00,
2013-09-29 19:16:00,62.7,59.4,30.02,WNW,283,0.0,0.0,89,0.00,,,0.00,0,Wunderground v.1.15,2013-09-29 23:16:00,
2013-09-29 19:22:00,62.3,59.3,30.02,WNW,283,0.0,0.0,90,0.00,,,0.00,0,Wunderground v.1.15,2013-09-29 23:22:00,
2013-09-29 19:28:00,61.9,58.9,30.02,WNW,283,0.0,0.0,90,0.00,,,0.00,0,Wunderground v.1.15,2013-09-29 23:28:00,
2013-09-29 19:33:00,61.6,58.9,30.03,WNW,283,0.0,0.0,91,0.00,,,0.00,0,Wunderground v.1.15,2013-09-29 23:33:00,
2013-09-29 19:38:00,61.2,58.6,30.03,WNW,283,0.0,0.0,91,0.00,,,0.00,0,Wunderground v.1.15,2013-09-29 23:38:00,
2013-09-29 19:43:00,61.0,58.4,30.03,WNW,283,0.0,0.0,91,0.00,,,0.00,0,Wunderground v.1.15,2013-09-29 23:43:00,
2013-09-29 19:48:00,60.7,58.4,30.03,WNW,283,0.0,0.0,92,0.00,,,0.00,0,Wunderground v.1.15,2013-09-29 23:48:00,
2013-09-29 19:54:00,60.4,58.1,30.03,WNW,283,0.0,0.0,92,0.00,,,0.00,0,Wunderground v.1.15,2013-09-29 23:54:00,
2013-09-29 20:01:00,60.1,57.8,30.03,WNW,283,0.0,0.0,92,0.00,,,0.00,0,Wunderground v.1.15,2013-09-30 00:01:00,
2013-09-29 20:06:00,59.9,57.9,30.04,WNW,283,0.0,0.0,93,0.00,,,0.00,0,Wunderground v.1.15,2013-09-30 00:06:00,
2013-09-29 20:12:00,59.8,57.8,30.04,WNW,283,0.0,0.0,93,0.00,,,0.00,0,Wunderground v.1.15,2013-09-30 00:12:00,
2013-09-29 20:18:00,59.6,57.6,30.04,WNW,283,0.0,0.0,93,0.00,,,0.00,0,Wunderground v.1.15,2013-09-30 00:18:00,
2013-09-29 20:24:00,59.4,57.4,30.04,WNW,283,0.0,0.0,93,0.00,,,0.00,0,Wunderground v.1.15,2013-09-30 00:24:00,
2013-09-29 20:30:00,59.2,57.2,30.04,WNW,283,0.0,0.0,93,0.00,,,0.00,0,Wunderground v.1.15,2013-09-30 00:30:00,
2013-09-29 20:36:00,59.1,57.1,30.05,WNW,283,0.0,0.0,93,0.00,,,0.00,0,Wunderground v.1.15,2013-09-30 00:36:00,
2013-09-29 20:41:00,58.9,57.2,30.05,WNW,283,0.0,0.0,94,0.00,,,0.00,0,Wunderground v.1.15,2013-09-30 00:41:00,
2013-09-29 20:46:00,58.8,57.1,30.05,WNW,283,0.0,0.0,94,0.00,,,0.00,0,Wunderground v.1.15,2013-09-30 00:46:00,
2013-09-29 20:52:00,58.7,57.0,30.05,WNW,283,0.0,0.0,94,0.00,,,0.00,0,Wunderground v.1.15,2013-09-30 00:52:00,
2013-09-29 20:58:00,58.7,57.0,30.05,WNW,283,0.0,0.0,94,0.00,,,0.00,0,Wunderground v.1.15,2013-09-30 00:58:00,
2013-09-29 21:03:00,58.6,56.9,30.05,WNW,283,0.0,0.0,94,0.00,,,0.00,0,Wunderground v.1.15,2013-09-30 01:03:00,
2013-09-29 21:08:00,58.5,56.8,30.05,WNW,283,0.0,0.0,94,0.00,,,0.00,0,Wunderground v.1.15,2013-09-30 01:08:00,
2013-09-29 21:13:00,58.4,57.0,30.04,WNW,283,0.0,0.0,95,0.00,,,0.00,0,Wunderground v.1.15,2013-09-30 01:13:00,
2013-09-29 21:19:00,58.3,56.9,30.04,WNW,283,0.0,0.0,95,0.00,,,0.00,0,Wunderground v.1.15,2013-09-30 01:19:00,
2013-09-29 21:25:00,58.2,56.8,30.04,WNW,283,0.0,0.0,95,0.00,,,0.00,0,Wunderground v.1.15,2013-09-30 01:25:00,
2013-09-29 21:30:00,58.0,56.6,30.04,WNW,283,0.0,0.0,95,0.00,,,0.00,0,Wunderground v.1.15,2013-09-30 01:30:00,
2013-09-29 21:35:00,57.9,56.5,30.04,WNW,283,0.0,0.0,95,0.00,,,0.00,0,Wunderground v.1.15,2013-09-30 01:35:00,
2013-09-29 21:41:00,57.7,56.3,30.04,WNW,283,0.0,0.0,95,0.00,,,0.00,0,Wunderground v.1.15,2013-09-30 01:41:00,
2013-09-29 21:46:00,57.6,56.2,30.04,WNW,283,0.0,0.0,95,0.00,,,0.00,0,Wunderground v.1.15,2013-09-30 01:46:00,
2013-09-29 21:52:00,57.4,56.0,30.04,WNW,283,0.0,0.0,95,0.00,,,0.00,0,Wunderground v.1.15,2013-09-30 01:52:00,
2013-09-29 21:57:00,57.4,56.0,30.04,WNW,283,0.0,0.0,95,0.00,,,0.00,0,Wunderground v.1.15,2013-09-30 01:57:00,
2013-09-29 22:03:00,57.2,55.8,30.04,WNW,283,0.0,0.0,95,0.00,,,0.00,0,Wunderground v.1.15,2013-09-30 02:03:00,
2013-09-29 22:09:00,57.0,55.6,30.04,WNW,283,0.0,0.0,95,0.00,,,0.00,0,Wunderground v.1.15,2013-09-30 02:09:00,
2013-09-29 22:14:00,56.9,55.5,30.04,WNW,283,0.0,0.0,95,0.00,,,0.00,0,Wunderground v.1.15,2013-09-30 02:14:00,
2013-09-29 22:19:00,56.8,55.4,30.04,WNW,283,0.0,0.0,95,0.00,,,0.00,0,Wunderground v.1.15,2013-09-30 02:19:00,
2013-09-29 22:25:00,56.6,55.2,30.04,WNW,283,0.0,0.0,95,0.00,,,0.00,0,Wunderground v.1.15,2013-09-30 02:25:00,
2013-09-29 22:30:00,56.4,55.0,30.04,WNW,283,0.0,0.0,95,0.00,,,0.00,0,Wunderground v.1.15,2013-09-30 02:30:00,
2013-09-29 22:36:00,56.2,54.8,30.04,WNW,283,0.0,0.0,95,0.00,,,0.00,0,Wunderground v.1.15,2013-09-30 02:36:00,
2013-09-29 22:42:00,55.9,54.5,30.03,WNW,283,0.0,0.0,95,0.00,,,0.00,0,Wunderground v.1.15,2013-09-30 02:42:00,
2013-09-29 22:48:00,55.7,54.3,30.04,WNW,283,0.0,0.0,95,0.00,,,0.00,0,Wunderground v.1.15,2013-09-30 02:48:00,
2013-09-29 22:54:00,55.6,54.2,30.04,WNW,283,0.0,0.0,95,0.00,,,0.00,0,Wunderground v.1.15,2013-09-30 02:54:00,
2013-09-29 23:00:00,55.4,54.0,30.04,WNW,283,0.0,0.0,95,0.00,,,0.00,0,Wunderground v.1.15,2013-09-30 03:00:00,
2013-09-29 23:05:00,55.3,53.9,30.04,WNW,283,0.0,0.0,95,0.00,,,0.00,0,Wunderground v.1.15,2013-09-30 03:05:00,
2013-09-29 23:11:00,55.2,53.8,30.04,WNW,283,0.0,0.0,95,0.00,,,0.00,0,Wunderground v.1.15,2013-09-30 03:11:00,
2013-09-29 23:16:00,55.1,53.7,30.04,WNW,283,0.0,0.0,95,0.00,,,0.00,0,Wunderground v.1.15,2013-09-30 03:16:00,
2013-09-29 23:22:00,55.0,53.6,30.04,WNW,283,0.0,0.0,95,0.00,,,0.00,0,Wunderground v.1.15,2013-09-30 03:22:00,
2013-09-29 23:28:00,54.9,53.5,30.03,WNW,283,0.0,0.0,95,0.00,,,0.00,0,Wunderground v.1.15,2013-09-30 03:28:00,
2013-09-29 23:33:00,54.7,53.3,30.03,WNW,283,0.0,0.0,95,0.00,,,0.00,0,Wunderground v.1.15,2013-09-30 03:33:00,
2013-09-29 23:39:00,54.6,53.5,30.03,WNW,283,0.0,0.0,96,0.00,,,0.00,0,Wunderground v.1.15,2013-09-30 03:39:00,
2013-09-29 23:46:00,54.4,53.0,30.04,WNW,283,0.0,0.0,95,0.00,,,0.00,0,Wunderground v.1.15,2013-09-30 03:46:00,
2013-09-29 23:51:00,54.2,52.8,30.04,WNW,283,0.0,0.0,95,0.00,,,0.00,0,Wunderground v.1.15,2013-09-30 03:51:00,
2013-09-29 23:57:00,54.1,53.0,30.04,WNW,283,0.0,0.0,96,0.00,,,0.00,0,Wunderground v.1.15,2013-09-30 03:57:00,